STARLINK-1094, 44941

Orbit data source: Space-Track

STARLINK-1094, 44941 is a payload satellite owned by SpaceX/Seattle (US) in LEO that was launched on Tue, 07 Jan 2020 UTC via an FALCON 9 launch vehicle from the Air Force Eastern Test Range (AFETR). Payload-class satellites include a variety of spacecraft equipped with specific instruments for various scientific and technological missions. These include communications satellites like Starlink; space stations such as the ISS; scientific satellites like the Hubble; Earth observation satellites from companies like Planet Labs, Umbra, and HawkEye 360; GPS; miniature CubeSats for education and research; and military/defense satellites.

Loading next visibility...
Identifier
44941, 2020-001AD
Orbit
LEO
Country
Flag of USUS
Related business
Manufacturer
SpaceX/Seattle
Mission
Partially operational Commercial Communications
Bus & Motor
STARLINK, Unknown motor
Mass
260 kg wet, ~248 kg dry
Launch date (UTC)
2020-01-07 (6 years ago)
Launch vehicle
FALCON 9
Launch site
Air Force Eastern Test Range (AFETR)
Object type
Payload
Rocket body
Debris
Shape & HBR
Box + 1 Pan, 10.1 m
Radar Cross Section
13.562 m², Large (>1 m²)

Expand to show TLE details & history
Last TLE update: 5 hours ago

TLE from 5 hours ago
0 STARLINK-1094
1 44941U 20001AD  26119.66670139  .00077950  00000-0  14049-2 0  9990
2 44941  53.1549  81.4505 0001789 103.0700  52.5892 15.49120552  5774
Epoch: 2026-04-29T16:00Z
TLE epoch observation values (Epoch: 2026-04-29T16:00:03.000Z)
Latitude
19.28497°
Longitude
148.70034°
Altitude
418.977 km
Speed
7.663 km/s
True Right ascension
16h 25m 20s
True Declination
19° 10' 22"
Sunlit
Object was in full shadow at epoch
Visualization orbit readout
Latitude
Unknown
Longitude
Unknown
Altitude
Unknown
Speed
Unknown
Apparent Right ascension
Unknown
Apparent Declination
Unknown
Sunlit
N/A
Visualization observer readout
Local Sidereal Time
04:39:19
Azimuth
Unknown
Elevation
Unknown
Doppler factor
Unknown
Orbital elements
Apogee altitude
420.773 km
Perigee altitude
418.341 km
Semi-major axis
6,797.694 km
Eccentricity
0.00018
Inclination
53.1549°
RAAN
81.4505°
Arg. of periapsis
103.07°
True anomaly
52.60549°
Mean anomaly
52.5892°
Eccentric anomaly
52.59734°
Mean motion
3.87258 °/min
Orbital period
92.96 mins
BSTAR
0.0014049
Loading maneuver chart data...
Computing Atmospheric mass density...

Documentation

Showing up to 5 results
|